GORIZONT 8 [-]

Last updated on Oct. 24, 2020, 5:55 a.m. UTC

1 14532U 83118A   20297.89641590 -.00000205  00000-0  00000-0 0  9996
2 14532  13.3315 330.8601 0027324 129.4231 224.7491  0.98271145100236
UTC
Height (km)
Latitude
Longitude
Inclination
Orbital Period
UTC large
Height (km)
Speed (km/s)
/
Latitude / Longitude
Inclination (degrees)
Orbital Period (minutes)
Azimuth
Elevation
Range (km)
Doppler Factor
iOS Compass Heading
iOS Angle

Next 30 passes for location: Hong Kong

Rise time Rise Azimuth (degrees) Set time Set Azimuth (degrees) Duration Max altitude (degrees)

No matching passes for this satellites